Torna al catalogo

COSMOS 292

AttivoMilitareLEO
NORAD 4070·PAYLOAD·🇷🇺 Russia

Lanciato Aug 13, 1969 da Plesetsk Cosmodrome

Loading…

Prossimi Passaggi (prossime 24 ore)

TLE

AggiornatoSource: Space-Track

Epoca: Sep 14, 2026, 15:37 UTC

1 04070U 69070A   26257.65110672  .00000164  00000-0  44310-4 0  9990
2 04070  74.0476 135.8473 0008666  68.3007 291.9079 14.55492192 19146

Traccia COSMOS 292 in tempo reale con AllMySat

Download on the App Store